Location: Montbazon
(47.2835°N, 0.6999°E)
Time: 17:01:16
(UTC+00:00)

COSMOS 2455 - Pass Details

Date: 08 November 2025
Orbit: 898 x 910 km, 67.1° (Epoch: 13 December)

Event Time Altitude Azimuth Distance (km) Brightness Sun altitude
Exits shadow 03:45:06 41° 10° (N) 1,291 3.7 -31.7°
Drops below altitude 10° 03:49:06 10° 29° (NNE) 2,604 5.6 -31.0°
Sets 03:51:40 0° 33° (NNE) 3,550 6.5 -30.6°
